Date String (YYYY-MM-DD hh:mm:ss) UTC,Instrument flags,absolute air pressure of the measurement (hPa),sample flow rate (lpm),inlet stack bypass flow (lpm),air temperature of the measurement (°C),ambient temperature measured by the external sensor (°C),aerosol sample conditioner tube jacket temperature (°C),OPC LED temperature (°C),internal box temperature (°C),relative humidity of the measurement (%),span deviation,mass concentration of particles derived from Lorenz-Mie calculation of OPC scattering (μg/m³),mass concentration of particles derived from Lorenz-Mie calculation of OPC scattering (μg/m³),mass concentration of particles derived from Lorenz-Mie calculation of OPC scattering (μg/m³)
DateTimeUTC,F1_M11,P_M11,Q1_M11,Q2_M11,T1_M11,T2_M11,T3_M11,T4_M11,T5_M11,U1_M11,ZSPAN_M11,X0_M11,X2_M11,X1_M11
2024-04-21 09:00:00,SystemResetWarning,0836.9,5.00,000.00,019.1,018.6,000.0,027.6,020.9,023.2,0000.2,0009.66,0007.74,0007.56
2024-04-21 09:01:00,SystemResetWarning,0836.9,5.00,000.00,019.1,018.6,000.0,027.6,020.9,023.2,0000.6,0009.64,0007.75,0007.58
2024-04-21 09:02:00,SystemResetWarning,0837.0,5.00,000.00,019.1,018.6,000.0,027.6,020.9,023.1,0000.7,0009.67,0007.78,0007.62
2024-04-21 09:03:00,SystemResetWarning,0837.0,5.01,000.00,019.1,018.6,000.0,027.6,020.9,023.1,0000.8,0009.68,0007.79,0007.63
2024-04-21 09:04:00,SystemResetWarning,0837.0,5.00,000.00,019.1,018.6,000.0,027.6,020.9,023.1,0000.6,0009.76,0007.81,0007.64
2024-04-21 09:05:00,SystemResetWarning,0837.0,5.00,000.00,019.2,018.6,000.0,027.6,020.9,023.1,0000.7,0009.81,0007.83,0007.66
2024-04-21 09:06:00,SystemResetWarning,0837.0,5.00,000.00,019.1,018.6,000.0,027.6,020.9,023.2,0000.9,0009.88,0007.87,0007.69
2024-04-21 09:07:00,SystemResetWarning,0837.0,5.00,000.00,019.2,018.6,000.0,027.6,020.9,023.2,0001.2,0009.85,0007.88,0007.71
2024-04-21 09:08:00,SystemResetWarning,0837.0,5.00,000.00,019.1,018.6,000.0,027.6,020.9,023.2,0001.6,0009.87,0007.91,0007.73
2024-04-21 09:09:00,SystemResetWarning,0837.0,5.00,000.00,019.1,018.6,000.0,027.6,020.9,023.2,0001.7,0009.90,0007.92,0007.74
2024-04-21 09:10:00,SystemResetWarning,0836.9,5.00,000.00,019.1,018.6,000.0,027.6,020.9,023.2,0001.6,0009.95,0007.94,0007.75
2024-04-21 09:11:00,SystemResetWarning,0836.9,5.00,000.00,019.2,018.6,000.0,027.6,020.9,023.2,0001.5,0009.99,0007.97,0007.77
2024-04-21 09:12:00,SystemResetWarning,0837.0,5.01,000.00,019.2,018.6,000.0,027.6,020.9,023.2,0001.3,0009.96,0007.95,0007.76
2024-04-21 09:13:00,SystemResetWarning,0837.0,5.01,000.00,019.1,018.6,000.0,027.6,020.9,023.2,0001.2,0010.07,0007.95,0007.74
2024-04-21 09:14:00,SystemResetWarning,0837.0,5.00,000.00,019.1,018.6,000.0,027.6,020.9,023.2,0001.1,0010.69,0007.94,0007.74
2024-04-21 09:15:00,SystemResetWarning,0836.9,4.99,000.00,019.2,018.6,000.0,027.6,020.9,023.2,0001.2,0010.60,0007.92,0007.73
2024-04-21 09:16:00,SystemResetWarning,0836.9,5.00,000.00,019.2,018.6,000.0,027.6,020.9,023.2,0001.4,0010.51,0007.90,0007.72
2024-04-21 09:17:00,SystemResetWarning,0836.9,5.00,000.00,019.2,018.6,000.0,027.6,020.9,024.1,0001.5,0010.48,0007.89,0007.72
2024-04-21 09:18:00,SystemResetWarning,0836.9,5.00,000.00,019.2,018.6,000.0,027.6,020.9,024.0,0001.6,0010.44,0007.88,0007.72
2024-04-21 09:19:00,SystemResetWarning,0836.9,4.99,000.00,019.2,018.6,000.0,027.6,020.9,023.5,0001.6,0010.44,0007.89,0007.73
2024-04-21 09:20:00,SystemResetWarning,0837.0,5.00,000.00,019.2,018.6,000.0,027.6,020.9,023.4,0001.5,0010.48,0007.91,0007.74
2024-04-21 09:21:00,SystemResetWarning,0836.9,5.01,000.00,019.2,018.6,000.0,027.6,020.9,023.3,0001.4,0010.48,0007.92,0007.76
2024-04-21 09:22:00,SystemResetWarning,0837.0,5.01,000.00,019.2,018.6,000.0,027.6,020.9,023.3,0001.3,0010.46,0007.89,0007.74
2024-04-21 09:23:00,SystemResetWarning,0837.0,5.00,000.00,019.1,018.6,000.0,027.6,020.9,023.3,0001.3,0010.47,0007.90,0007.75
2024-04-21 09:24:00,SystemResetWarning,0836.9,4.99,000.00,019.1,018.6,000.0,027.6,020.9,023.3,0001.2,0010.50,0007.90,0007.76
2024-04-21 09:25:00,SystemResetWarning,0836.9,4.99,000.00,019.1,018.6,000.0,027.6,020.9,023.3,0001.2,0009.81,0007.91,0007.77
2024-04-21 09:26:00,SystemResetWarning,0836.9,5.00,000.00,019.1,018.5,000.0,027.6,020.9,023.2,0000.9,0009.82,0007.92,0007.77
2024-04-21 09:27:00,SystemResetWarning,0836.9,5.00,000.00,019.1,018.5,000.0,027.6,020.9,023.2,0000.6,0009.93,0007.94,0007.78
2024-04-21 09:28:00,SystemResetWarning,0836.9,5.01,000.00,019.1,018.5,000.0,027.6,020.9,023.2,0000.5,0009.96,0007.94,0007.78
2024-04-21 09:29:00,SystemResetWarning,0836.8,5.00,000.00,019.1,018.5,000.0,027.6,020.9,023.3,0000.3,0009.98,0007.92,0007.75
2024-04-21 09:30:00,SystemResetWarning,0836.8,4.99,000.00,019.1,018.5,000.0,027.6,020.8,023.3,0000.1,0009.94,0007.89,0007.71
2024-04-21 09:31:00,SystemResetWarning,0836.8,5.01,000.00,019.1,018.5,000.0,027.6,020.8,023.3,0000.2,0009.88,0007.84,0007.67
2024-04-21 09:32:00,SystemResetWarning,0836.8,5.01,000.00,019.1,018.5,000.0,027.6,020.8,023.2,0000.2,0009.86,0007.81,0007.64
2024-04-21 09:33:00,SystemResetWarning,0836.7,5.00,000.00,019.1,018.5,000.0,027.6,020.8,023.2,-000.0,0009.89,0007.79,0007.61
2024-04-21 09:34:00,SystemResetWarning,0836.8,5.00,000.00,019.1,018.5,000.0,027.6,020.8,023.2,-000.4,0009.89,0007.77,0007.59
2024-04-21 09:35:00,SystemResetWarning,0836.8,5.00,000.00,019.1,018.5,000.0,027.6,020.8,023.2,-000.3,0009.78,0007.70,0007.53
2024-04-21 09:36:00,SystemResetWarning,0836.8,5.00,000.00,019.1,018.5,000.0,027.6,020.8,023.2,-000.2,0009.74,0007.66,0007.48
2024-04-21 09:37:00,SystemResetWarning,0836.8,5.00,000.00,019.1,018.5,000.0,027.6,020.8,023.2,-000.4,0009.74,0007.62,0007.43
2024-04-21 09:38:00,SystemResetWarning,0836.8,5.00,000.00,019.1,018.5,000.0,027.6,020.8,023.2,-000.7,0009.64,0007.57,0007.37
2024-04-21 09:39:00,SystemResetWarning,0836.8,5.00,000.00,019.1,018.5,000.0,027.6,020.8,023.2,-000.9,0009.57,0007.51,0007.33
2024-04-21 09:40:00,SystemResetWarning,0836.8,5.01,000.00,019.1,018.4,000.0,027.6,020.8,023.2,-000.7,0009.55,0007.49,0007.31
2024-04-21 09:41:00,SystemResetWarning,0836.8,5.01,000.00,019.0,018.4,000.0,027.6,020.8,023.2,-000.6,0009.51,0007.47,0007.30
2024-04-21 09:42:00,SystemResetWarning,0836.7,5.01,000.00,019.0,018.4,000.0,027.6,020.8,023.3,-000.7,0009.50,0007.46,0007.29
2024-04-21 09:43:00,SystemResetWarning,0836.6,4.99,000.00,019.0,018.4,000.0,027.6,020.8,023.3,-000.7,0009.50,0007.45,0007.28
2024-04-21 09:44:00,SystemResetWarning,0836.6,4.99,000.00,019.0,018.4,000.0,027.6,020.7,023.3,-000.4,0009.52,0007.44,0007.27
2024-04-21 09:45:00,SystemResetWarning,0836.6,5.00,000.00,019.0,018.3,000.0,027.6,020.7,023.3,-000.0,0009.50,0007.42,0007.25
2024-04-21 09:46:00,SystemResetWarning,0836.6,5.00,000.00,019.0,018.3,000.0,027.6,020.7,023.3,0000.2,0009.54,0007.45,0007.28
2024-04-21 09:47:00,SystemResetWarning,0836.7,5.00,000.00,019.0,018.3,000.0,027.5,020.7,023.4,-000.1,0009.55,0007.46,0007.29
2024-04-21 09:48:00,SystemResetWarning,0836.7,5.00,000.00,019.0,018.3,000.0,027.5,020.6,023.5,0000.5,0009.52,0007.46,0007.30
2024-04-21 09:49:00,SystemResetWarning,0836.7,5.01,000.00,018.9,018.3,000.0,027.5,020.6,023.6,0000.9,0009.50,0007.46,0007.32
2024-04-21 09:50:00,SystemResetWarning,0836.7,5.01,000.00,018.9,018.3,000.0,027.5,020.6,023.6,0001.0,0010.18,0007.49,0007.32
2024-04-21 09:51:00,SystemResetWarning,0836.8,5.00,000.00,018.9,018.3,000.0,027.5,020.6,023.6,0000.7,0010.23,0007.50,0007.33
2024-04-21 09:52:00,SystemResetWarning,0836.8,4.99,000.00,018.9,018.3,000.0,027.5,020.6,023.6,0000.5,0010.29,0007.53,0007.34
2024-04-21 09:53:00,SystemResetWarning,0836.7,4.99,000.00,018.9,018.3,000.0,027.5,020.6,023.7,0000.5,0010.39,0007.58,0007.38
2024-04-21 09:54:00,SystemResetWarning,0836.7,4.99,000.00,018.9,018.2,000.0,027.5,020.6,023.7,0000.3,0010.40,0007.60,0007.40
2024-04-21 09:55:00,SystemResetWarning,0836.7,5.01,000.00,018.9,018.2,000.0,027.5,020.6,023.7,0000.1,0010.40,0007.64,0007.44
2024-04-21 09:56:00,SystemResetWarning,0836.7,5.01,000.00,018.9,018.2,000.0,027.5,020.6,023.7,0000.0,0010.42,0007.67,0007.46
2024-04-21 09:57:00,SystemResetWarning,0836.7,5.00,000.00,018.9,018.2,000.0,027.5,020.6,023.8,-000.0,0010.44,0007.69,0007.48
2024-04-21 09:58:00,SystemResetWarning,0836.7,4.99,000.00,018.9,018.2,000.0,027.5,020.6,023.9,0000.3,0010.44,0007.71,0007.49
2024-04-21 09:59:00,SystemResetWarning,0836.6,4.99,000.00,018.9,018.2,000.0,027.4,020.6,023.9,0000.1,0010.52,0007.74,0007.51
